Date String (YYYY-MM-DD hh:mm:ss) UTC,Instrument flags,absolute air pressure of the measurement (hPa),sample flow rate (lpm),inlet stack bypass flow (lpm),air temperature of the measurement (°C),ambient temperature measured by the external sensor (°C),aerosol sample conditioner tube jacket temperature (°C),OPC LED temperature (°C),internal box temperature (°C),relative humidity of the measurement (%),span deviation,mass concentration of particles derived from Lorenz-Mie calculation of OPC scattering (μg/m³),mass concentration of particles derived from Lorenz-Mie calculation of OPC scattering (μg/m³),mass concentration of particles derived from Lorenz-Mie calculation of OPC scattering (μg/m³)
DateTimeUTC,F1_M11,P_M11,Q1_M11,Q2_M11,T1_M11,T2_M11,T3_M11,T4_M11,T5_M11,U1_M11,ZSPAN_M11,X0_M11,X2_M11,X1_M11
2024-04-24 14:00:00,SystemResetWarning,0829.3,5.01,000.00,024.4,023.7,000.0,032.9,026.3,024.6,0000.0,0013.25,0005.20,0004.02
2024-04-24 14:01:00,SystemResetWarning,0829.2,5.01,000.00,024.4,023.7,000.0,032.9,026.3,025.3,0000.0,0013.65,0005.28,0004.02
2024-04-24 14:02:00,SystemResetWarning,0829.2,5.00,000.00,024.4,023.7,000.0,032.9,026.3,025.0,0000.0,0014.06,0005.33,0004.03
2024-04-24 14:03:00,SystemResetWarning,0829.2,5.00,000.00,024.4,023.7,000.0,032.9,026.3,025.1,0000.0,0013.75,0005.35,0004.03
2024-04-24 14:04:00,SystemResetWarning,0829.2,5.00,000.00,024.4,023.7,000.0,032.9,026.3,025.3,0000.0,0013.58,0005.33,0004.03
2024-04-24 14:05:00,SystemResetWarning,0829.1,4.99,000.00,024.4,023.7,000.0,032.9,026.3,025.6,0000.0,0013.30,0005.31,0004.03
2024-04-24 14:06:00,SystemResetWarning,0829.1,5.00,000.00,024.4,023.8,000.0,032.9,026.3,025.6,0000.0,0012.89,0005.30,0004.03
2024-04-24 14:07:00,SystemResetWarning,0829.1,5.00,000.00,024.4,023.8,000.0,032.9,026.3,026.6,0000.0,0012.64,0005.33,0004.02
2024-04-24 14:08:00,SystemResetWarning,0829.1,5.01,000.00,024.5,023.8,000.0,032.9,026.3,026.8,0000.0,0012.61,0005.29,0004.03
2024-04-24 14:09:00,SystemResetWarning,0829.2,5.00,000.00,024.5,023.8,000.0,032.9,026.3,026.8,0000.0,0012.49,0005.18,0004.03
2024-04-24 14:10:00,SystemResetWarning,0829.2,5.01,000.00,024.5,023.8,000.0,033.0,026.4,026.7,0000.0,0012.91,0005.16,0004.04
2024-04-24 14:11:00,SystemResetWarning,0829.3,5.01,000.00,024.5,023.8,000.0,033.0,026.4,026.6,0000.0,0013.23,0005.20,0004.06
2024-04-24 14:12:00,SystemResetWarning,0829.3,4.99,000.00,024.5,023.8,000.0,033.0,026.4,025.2,0000.0,0013.08,0005.18,0004.07
2024-04-24 14:13:00,SystemResetWarning,0829.2,5.00,000.00,024.5,023.8,000.0,033.0,026.4,025.1,0000.0,0012.74,0005.17,0004.08
2024-04-24 14:14:00,SystemResetWarning,0829.2,4.99,000.00,024.5,023.9,000.0,033.0,026.4,024.6,0000.0,0012.75,0005.17,0004.09
2024-04-24 14:15:00,SystemResetWarning,0829.2,5.00,000.00,024.5,023.9,000.0,033.0,026.4,025.0,0000.0,0012.94,0005.22,0004.10
2024-04-24 14:16:00,SystemResetWarning,0829.2,5.01,000.00,024.5,023.9,000.0,033.0,026.4,024.8,0000.0,0012.74,0005.23,0004.11
2024-04-24 14:17:00,SystemResetWarning,0829.2,5.01,000.00,024.5,023.9,000.0,033.0,026.4,025.3,0000.0,0012.59,0005.20,0004.11
2024-04-24 14:18:00,SystemResetWarning,0829.2,5.01,000.00,024.5,023.9,000.0,033.0,026.4,025.1,0000.0,0012.75,0005.16,0004.12
2024-04-24 14:19:00,SystemResetWarning,0829.2,5.00,000.00,024.5,023.9,000.0,033.0,026.4,024.9,0000.0,0012.29,0005.19,0004.13
2024-04-24 14:20:00,SystemResetWarning,0829.2,5.00,000.00,024.6,023.9,000.0,033.0,026.4,025.1,0000.0,0012.36,0005.17,0004.12
2024-04-24 14:21:00,SystemResetWarning,0829.3,4.99,000.00,024.6,023.9,000.0,033.0,026.4,023.5,0000.0,0012.25,0005.17,0004.13
2024-04-24 14:22:00,SystemResetWarning,0829.3,5.00,000.00,024.6,023.9,000.0,033.0,026.4,024.0,0000.0,0011.76,0005.16,0004.14
2024-04-24 14:23:00,SystemResetWarning,0829.3,5.00,000.00,024.6,023.9,000.0,033.0,026.4,023.9,0000.0,0011.68,0005.18,0004.17
2024-04-24 14:24:00,SystemResetWarning,0829.3,5.00,000.00,024.6,023.9,000.0,033.0,026.4,023.9,0000.0,0011.56,0005.19,0004.20
2024-04-24 14:25:00,SystemResetWarning,0829.3,5.01,000.00,024.6,023.9,000.0,033.1,026.5,024.3,0000.0,0011.51,0005.19,0004.23
2024-04-24 14:26:00,SystemResetWarning,0829.2,5.01,000.00,024.6,023.9,000.0,033.1,026.5,024.6,0000.0,0011.40,0005.19,0004.26
2024-04-24 14:27:00,SystemResetWarning,0829.2,5.00,000.00,024.6,023.9,000.0,033.1,026.5,025.0,0000.0,0011.48,0005.21,0004.28
2024-04-24 14:28:00,SystemResetWarning,0829.3,5.00,000.00,024.6,024.0,000.0,033.1,026.5,024.5,0000.0,0012.41,0005.24,0004.30
2024-04-24 14:29:00,SystemResetWarning,0829.2,4.99,000.00,024.6,024.0,000.0,033.1,026.5,023.9,0000.0,0012.24,0005.29,0004.31
2024-04-24 14:30:00,SystemResetWarning,0829.2,5.00,000.00,024.6,024.0,000.0,033.1,026.5,024.9,0000.0,0012.05,0005.30,0004.34
2024-04-24 14:31:00,SystemResetWarning,0829.2,5.01,000.00,024.6,024.0,000.0,033.1,026.5,024.6,0000.0,0011.71,0005.36,0004.38
2024-04-24 14:32:00,SystemResetWarning,0829.1,5.01,000.00,024.6,024.0,000.0,033.1,026.5,025.1,0000.0,0010.80,0005.43,0004.39
2024-04-24 14:33:00,SystemResetWarning,0829.1,5.00,000.00,024.7,024.0,000.0,033.1,026.5,024.5,0000.0,0011.09,0005.42,0004.39
2024-04-24 14:34:00,SystemResetWarning,0829.2,5.00,000.00,024.7,024.0,000.0,033.1,026.5,024.1,0000.0,0011.27,0005.40,0004.38
2024-04-24 14:35:00,SystemResetWarning,0829.1,5.00,000.00,024.7,024.0,000.0,033.1,026.5,024.3,0000.0,0011.94,0005.40,0004.36
2024-04-24 14:36:00,SystemResetWarning,0829.1,4.99,000.00,024.7,024.0,000.0,033.1,026.5,023.7,0000.0,0012.63,0005.43,0004.35
2024-04-24 14:37:00,SystemResetWarning,0829.2,5.00,000.00,024.7,024.0,000.0,033.1,026.5,024.3,0000.0,0012.79,0005.48,0004.33
2024-04-24 14:38:00,SystemResetWarning,0829.2,4.99,000.00,024.7,024.0,000.0,033.1,026.5,024.4,0000.0,0012.78,0005.47,0004.32
2024-04-24 14:39:00,SystemResetWarning,0829.3,5.00,000.00,024.7,024.0,000.0,033.1,026.5,024.8,0000.0,0013.33,0005.49,0004.31
2024-04-24 14:40:00,SystemResetWarning,0829.3,5.00,000.00,024.7,024.0,000.0,033.1,026.5,024.2,0000.0,0014.22,0005.45,0004.32
2024-04-24 14:41:00,SystemResetWarning,0829.3,5.01,000.00,024.7,024.0,000.0,033.1,026.5,023.9,0000.0,0015.01,0005.52,0004.32
2024-04-24 14:42:00,SystemResetWarning,0829.4,5.01,000.00,024.7,023.9,000.0,033.1,026.5,025.1,0000.0,0015.50,0005.61,0004.31
2024-04-24 14:43:00,SystemResetWarning,0829.3,5.00,000.00,024.7,024.0,000.0,033.2,026.5,025.1,0000.0,0015.57,0005.61,0004.30
2024-04-24 14:44:00,SystemResetWarning,0829.3,5.00,000.00,024.7,023.9,000.0,033.2,026.5,025.5,0000.0,0016.06,0005.59,0004.29
2024-04-24 14:45:00,SystemResetWarning,0829.3,5.00,000.00,024.7,024.0,000.0,033.2,026.5,024.6,0000.0,0016.93,0005.58,0004.28
2024-04-24 14:46:00,SystemResetWarning,0829.2,4.99,000.00,024.7,024.0,000.0,033.2,026.5,025.4,0000.0,0017.22,0005.62,0004.28
2024-04-24 14:47:00,SystemResetWarning,0829.2,5.01,000.00,024.7,024.0,000.0,033.2,026.6,025.2,0000.0,0016.76,0005.67,0004.29
2024-04-24 14:48:00,SystemResetWarning,0829.2,5.02,000.00,024.7,024.0,000.0,033.2,026.6,024.8,0000.0,0016.57,0005.63,0004.31
2024-04-24 14:49:00,SystemResetWarning,0829.1,5.00,000.00,024.7,024.0,000.0,033.2,026.6,025.4,0000.0,0016.61,0005.65,0004.32
2024-04-24 14:50:00,SystemResetWarning,0829.2,4.99,000.00,024.7,024.0,000.0,033.2,026.5,025.6,0000.0,0016.23,0005.74,0004.32
2024-04-24 14:51:00,SystemResetWarning,0829.2,5.00,000.00,024.7,024.0,000.0,033.2,026.5,026.2,0000.0,0015.35,0005.77,0004.33
2024-04-24 14:52:00,SystemResetWarning,0829.2,5.01,000.00,024.7,024.0,000.0,033.2,026.5,026.4,0000.0,0014.54,0005.78,0004.32
2024-04-24 14:53:00,SystemResetWarning,0829.2,5.01,000.00,024.7,024.0,000.0,033.2,026.5,025.4,0000.0,0014.17,0005.75,0004.30
2024-04-24 14:54:00,SystemResetWarning,0829.2,5.00,000.00,024.7,024.0,000.0,033.2,026.5,025.0,0000.0,0014.46,0005.68,0004.31
2024-04-24 14:55:00,SystemResetWarning,0829.3,5.00,000.00,024.7,024.0,000.0,033.2,026.6,025.4,0000.0,0014.34,0005.68,0004.32
2024-04-24 14:56:00,SystemResetWarning,0829.3,5.00,000.00,024.7,024.0,000.0,033.2,026.6,025.1,0000.0,0013.96,0005.71,0004.33
2024-04-24 14:57:00,SystemResetWarning,0829.3,5.00,000.00,024.7,024.0,000.0,033.2,026.6,025.0,0000.0,0015.50,0005.72,0004.34
2024-04-24 14:58:00,SystemResetWarning,0829.3,5.00,000.00,024.7,024.0,000.0,033.2,026.6,024.8,0000.0,0015.89,0005.68,0004.34
2024-04-24 14:59:00,SystemResetWarning,0829.3,5.00,000.00,024.7,024.0,000.0,033.2,026.6,024.8,0000.0,0016.08,0005.68,0004.34
